This is the latest recevied weather packets stored in our database for station/object KE5QKR. If no packets are shown the sender has not sent any weather packets the latest 10 day(s).
| Time | Temp. | Humidity | Pressure | Rain* | Wind** | Luminosity | Snow |
|---|---|---|---|---|---|---|---|
| 1777581715 | 23.89° C | 88% | 1008.8 hPa | 0 mm | - | 287 W/m² | - |
| 1777581415 | 24.44° C | 89% | 1009.1 hPa | 0 mm | - | 215 W/m² | - |
| 1777581114 | 23.89° C | 89% | 1009.1 hPa | 0 mm | - | 255 W/m² | - |
| 1777580809 | 23.89° C | 89% | 1009 hPa | 1.78 mm | - | 333 W/m² | - |
| 1777580505 | 23.89° C | 93% | 1008.9 hPa | 1.78 mm | - | 350 W/m² | - |
| 1777580200 | 23.89° C | 94% | 1009 hPa | 0 mm | - | 283 W/m² | - |
| 1777579898 | 23.89° C | 95% | 1009.4 hPa | 0 mm | - | 297 W/m² | - |
| 1777579592 | 23.33° C | 94% | 1009.1 hPa | 0 mm | - | 122 W/m² | - |
| 1777579292 | 23.33° C | 94% | 1009.1 hPa | 0 mm | - | 100 W/m² | - |
| 1777578988 | 23.33° C | 93% | 1009.2 hPa | 0 mm | - | 105 W/m² | - |
| 1777578683 | 23.33° C | 94% | 1009.3 hPa | 0 mm | - | 147 W/m² | - |
| 1777578382 | 23.33° C | 94% | 1009.3 hPa | 0 mm | - | 286 W/m² | - |
| 1777578078 | 23.33° C | 94% | 1009.4 hPa | 0 mm | - | 250 W/m² | - |
| 1777577774 | 22.78° C | 95% | 1009.6 hPa | 0 mm | - | 246 W/m² | - |
| 1777577470 | 22.78° C | 96% | 1009.5 hPa | 0 mm | - | 157 W/m² | - |
| 1777577168 | 22.78° C | 95% | 1010.1 hPa | 0 mm | - | 120 W/m² | - |
| 1777576864 | 22.78° C | 96% | 1009.9 hPa | 0 mm | - | 184 W/m² | - |
| 1777576562 | 22.78° C | 96% | 1010.1 hPa | 0 mm | - | 199 W/m² | - |
| 1777576259 | 22.78° C | 96% | 1010.2 hPa | 0 mm | - | 153 W/m² | - |
| 1777575955 | 22.78° C | 96% | 1010.2 hPa | 0 mm | - | 154 W/m² | - |
| 1777575651 | 22.22° C | 97% | 1010.3 hPa | 0 mm | - | 222 W/m² | - |
| 1777575347 | 22.22° C | 97% | 1010.3 hPa | 0 mm | - | 147 W/m² | - |
| 1777575044 | 22.22° C | 97% | 1010.4 hPa | 0 mm | - | 148 W/m² | - |
| 1777574740 | 22.22° C | 97% | 1010.3 hPa | 0 mm | - | 113 W/m² | - |
| 1777574438 | 22.22° C | 97% | 1010.3 hPa | 0 mm | - | 105 W/m² | - |
* Rain latest hour (hover to see other rain measurements)
** Current wind speed in m/s (hover to see current wind gust speed)